Find Starlink 6242

NORAD ID: 56424 Int'l Des: 2023-061 Owner: SPXS Country: US Constellation: starlink operational
LEOCIRCULAR

リアルタイム位置

3D地球を読み込み中...

Starlink 6242について

説明を読み込み中...

次回通過

Passes for default location (London). Set your location on the main map for personalized predictions.

高度履歴

Loading altitude history...

軌道要素

1 56424U 23061BC 26107.25003472 .00005940 00000-0 31383-3 0 9991
2 56424 42.9993 321.1690 0001536 275.4738 102.2534 15.16169786 5813
Epoch: Apr 17, 2026 • Age: 13 hours

現在のステータス

高度 517.4 km
速度 7.61 km/s
衛星直下点 20.19°N, 19.35°W
打ち上げ日 May 4, 2023
運用期間 2.9 years
タイプ internet

技術仕様

分類 Payload
質量 305.00 kg
乾燥質量 290.00 kg
総質量 305.00 kg
長さ 0.20 m
直径 2.80 m
スパン 9.00 m
形状 Box + pan
製造者 SPXS
バスタイプ Starlink
フェーズステータス In Orbit
所有者/国 SPXS/US

Most Searched